When you browse on this site, cookies collect data to enhance your experience and personalize the content and advertising you see.
Visit our Privacy Policy to learn more. By continuing to use the site, you agree to this use of cookies and data.
  • In Hungary
  • List of Countries
  • For 7 days
  • Water Temperature
  • Weather Map
  • News
  • Weather Widgets
  • user-avatar
    Login

    Hourly Weather Aleppo

    Today, 12 November, Tuesday

    Time Temperature Precipitation Wind Pressure Humidity
    00:00 +18°C° 0 mm 1 mps 726 mmHg 30%
    01:00 +18°C° 0 mm 1 mps 726 mmHg 30%
    02:00 +16°C° 0 mm 1 mps 726 mmHg 30%
    03:00 +16°C° 0 mm 2 mps 726 mmHg 30%
    04:00 +16°C° 0 mm 2 mps 726 mmHg 30%
    05:00 +15°C° 0 mm 2 mps 726 mmHg 30%
    06:00 +16°C° 0 mm 2 mps 726 mmHg 28%
    07:00 +17°C° 0 mm 2 mps 727 mmHg 26%
    08:00 +19°C° 0 mm 2 mps 727 mmHg 26%
    09:00 +20°C° 0 mm 3 mps 727 mmHg 24%
    10:00 +21°C° 0 mm 3 mps 727 mmHg 21%
    11:00 +24°C° 0 mm 3 mps 727 mmHg 19%
    12:00 +24°C° 0 mm 3 mps 727 mmHg 18%
    13:00 +25°C° 0 mm 4 mps 726 mmHg 17%
    14:00 +25°C° 0 mm 4 mps 726 mmHg 16%
    15:00 +23°C° 0 mm 4 mps 726 mmHg 18%
    16:00 +21°C° 0 mm 4 mps 726 mmHg 20%
    17:00 +20°C° 0 mm 3 mps 726 mmHg 22%
    18:00 +20°C° 0 mm 3 mps 726 mmHg 24%
    19:00 +19°C° 0 mm 3 mps 726 mmHg 25%
    20:00 +18°C° 0 mm 3 mps 726 mmHg 26%
    21:00 +18°C° 0 mm 2 mps 726 mmHg 27%
    22:00 +17°C° 0 mm 2 mps 726 mmHg 28%
    23:00 +17°C° 0 mm 2 mps 726 mmHg 29%

    Tomorrow, 13 November, Wednesday

    Time Temperature Precipitation Wind Pressure Humidity
    00:00 +16°C° 0 mm 2 mps 726 mmHg 30%
    01:00 +16°C° 0 mm 2 mps 726 mmHg 30%
    02:00 +16°C° 0 mm 2 mps 725 mmHg 31%
    03:00 +16°C° 0 mm 3 mps 725 mmHg 31%
    04:00 +14°C° 0 mm 3 mps 725 mmHg 31%
    05:00 +14°C° 0 mm 3 mps 725 mmHg 31%
    06:00 +16°C° 0 mm 3 mps 725 mmHg 29%
    07:00 +17°C° 0 mm 3 mps 725 mmHg 27%
    08:00 +18°C° 0 mm 3 mps 726 mmHg 26%
    09:00 +20°C° 0 mm 4 mps 726 mmHg 23%
    10:00 +21°C° 0 mm 4 mps 726 mmHg 21%
    11:00 +23°C° 0 mm 4 mps 725 mmHg 18%
    12:00 +23°C° 0 mm 4 mps 725 mmHg 18%
    13:00 +25°C° 0 mm 4 mps 725 mmHg 18%
    14:00 +25°C° 0 mm 5 mps 724 mmHg 17%
    15:00 +23°C° 0 mm 4 mps 724 mmHg 19%
    16:00 +22°C° 0 mm 4 mps 724 mmHg 21%
    17:00 +21°C° 0 mm 3 mps 724 mmHg 24%
    18:00 +20°C° 0 mm 3 mps 724 mmHg 24%
    19:00 +19°C° 0 mm 4 mps 725 mmHg 25%
    20:00 +19°C° 0 mm 4 mps 725 mmHg 25%
    21:00 +19°C° 0 mm 4 mps 725 mmHg 27%
    22:00 +18°C° 0 mm 4 mps 724 mmHg 28%
    23:00 +18°C° 0 mm 3 mps 724 mmHg 29%

    Day after tomorrow, 14 November, Thursday

    Time Temperature Precipitation Wind Pressure Humidity
    00:00 +17°C° 0 mm 3 mps 724 mmHg 30%
    01:00 +17°C° 0 mm 3 mps 724 mmHg 32%
    02:00 +17°C° 0 mm 3 mps 724 mmHg 33%
    03:00 +17°C° 0 mm 4 mps 724 mmHg 33%
    04:00 +17°C° 0 mm 4 mps 723 mmHg 33%
    05:00 +15°C° 0 mm 4 mps 723 mmHg 34%
    06:00 +16°C° 0 mm 5 mps 724 mmHg 32%
    07:00 +17°C° 0 mm 5 mps 724 mmHg 30%
    08:00 +19°C° 0 mm 6 mps 724 mmHg 29%
    09:00 +20°C° 0 mm 6 mps 724 mmHg 29%
    10:00 +22°C° 0 mm 6 mps 724 mmHg 29%
    11:00 +23°C° 0 mm 6 mps 724 mmHg 29%
    12:00 +23°C° 0 mm 6 mps 724 mmHg 30%
    13:00 +24°C° 0 mm 6 mps 724 mmHg 32%
    14:00 +24°C° 0 mm 6 mps 723 mmHg 33%
    15:00 +23°C° 0 mm 6 mps 723 mmHg 38%
    16:00 +22°C° 0 mm 5 mps 723 mmHg 42%
    17:00 +21°C° 0 mm 5 mps 723 mmHg 47%
    18:00 +20°C° 0.3 mm 5 mps 723 mmHg 50%
    19:00 +20°C° 0.3 mm 5 mps 723 mmHg 54%
    20:00 +19°C° 0.3 mm 5 mps 724 mmHg 57%
    21:00 +19°C° 0.5 mm 4 mps 724 mmHg 59%
    22:00 +18°C° 0.5 mm 4 mps 724 mmHg 62%
    23:00 +18°C° 0.5 mm 4 mps 724 mmHg 64%

    15 November, Friday

    Time Temperature Precipitation Wind Pressure Humidity
    00:00 +17°C° 0.4 mm 4 mps 724 mmHg 64%
    01:00 +17°C° 0.4 mm 4 mps 723 mmHg 64%
    02:00 +17°C° 0.4 mm 4 mps 723 mmHg 65%
    03:00 +17°C° 0.3 mm 4 mps 723 mmHg 65%
    04:00 +16°C° 0.3 mm 3 mps 723 mmHg 66%
    05:00 +16°C° 0.3 mm 3 mps 723 mmHg 67%
    06:00 +17°C° 0.3 mm 3 mps 723 mmHg 63%
    07:00 +17°C° 0.3 mm 4 mps 724 mmHg 59%
    08:00 +18°C° 0.3 mm 4 mps 724 mmHg 56%
    09:00 +19°C° 0.1 mm 4 mps 724 mmHg 51%
    10:00 +20°C° 0.1 mm 3 mps 724 mmHg 47%
    11:00 +22°C° 0.1 mm 3 mps 724 mmHg 43%
    12:00 +22°C° 0 mm 3 mps 724 mmHg 41%
    13:00 +24°C° 0 mm 3 mps 723 mmHg 40%
    14:00 +24°C° 0 mm 3 mps 723 mmHg 39%
    15:00 +23°C° 0 mm 2 mps 723 mmHg 42%
    16:00 +21°C° 0 mm 2 mps 723 mmHg 45%
    17:00 +21°C° 0 mm 2 mps 723 mmHg 48%
    18:00 +20°C° 0 mm 2 mps 723 mmHg 49%
    19:00 +20°C° 0 mm 2 mps 723 mmHg 50%
    20:00 +19°C° 0 mm 2 mps 723 mmHg 51%
    21:00 +19°C° 0 mm 2 mps 723 mmHg 51%
    22:00 +20°C° 0 mm 1 mps 723 mmHg 51%
    23:00 +19°C° 0 mm 1 mps 722 mmHg 52%

    16 November, Saturday

    Time Temperature Precipitation Wind Pressure Humidity
    00:00 +18°C° 0 mm 2 mps 722 mmHg 52%
    01:00 +18°C° 0 mm 2 mps 722 mmHg 52%
    02:00 +17°C° 0 mm 2 mps 722 mmHg 52%
    03:00 +17°C° 0 mm 2 mps 722 mmHg 54%
    04:00 +18°C° 0 mm 1 mps 721 mmHg 55%
    05:00 +16°C° 0 mm 1 mps 721 mmHg 56%
    06:00 +18°C° 0 mm 1 mps 722 mmHg 53%
    07:00 +19°C° 0 mm 1 mps 722 mmHg 50%
    08:00 +19°C° 0 mm 2 mps 723 mmHg 47%
    09:00 +20°C° 0 mm 2 mps 723 mmHg 44%
    10:00 +21°C° 0 mm 2 mps 722 mmHg 40%
    11:00 +22°C° 0 mm 3 mps 722 mmHg 37%
    12:00 +24°C° 0 mm 3 mps 722 mmHg 37%
    13:00 +23°C° 0 mm 4 mps 722 mmHg 36%
    14:00 +23°C° 0 mm 4 mps 721 mmHg 36%
    15:00 +22°C° 0 mm 4 mps 721 mmHg 39%
    16:00 +21°C° 0 mm 3 mps 721 mmHg 42%
    17:00 +20°C° 0 mm 3 mps 721 mmHg 45%
    18:00 +20°C° 0 mm 2 mps 722 mmHg 46%
    19:00 +19°C° 0 mm 2 mps 722 mmHg 46%
    20:00 +20°C° 0 mm 1 mps 722 mmHg 47%
    21:00 +20°C° 0 mm 1 mps 722 mmHg 47%
    22:00 +19°C° 0 mm 2 mps 722 mmHg 48%
    23:00 +18°C° 0 mm 2 mps 722 mmHg 48%

    17 November, Sunday

    Time Temperature Precipitation Wind Pressure Humidity
    00:00 +18°C° 0 mm 2 mps 722 mmHg 50%
    01:00 +17°C° 0 mm 2 mps 722 mmHg 52%
    02:00 +17°C° 0 mm 2 mps 722 mmHg 53%
    03:00 +16°C° 0 mm 3 mps 722 mmHg 58%
    04:00 +15°C° 0 mm 4 mps 722 mmHg 63%
    05:00 +14°C° 0 mm 5 mps 723 mmHg 68%
    06:00 +14°C° 0.1 mm 5 mps 723 mmHg 68%
    07:00 +14°C° 0.1 mm 5 mps 723 mmHg 69%
    08:00 +14°C° 0.1 mm 6 mps 724 mmHg 69%
    09:00 +15°C° 0.3 mm 5 mps 724 mmHg 67%
    10:00 +17°C° 0.3 mm 5 mps 724 mmHg 64%
    11:00 +19°C° 0.3 mm 4 mps 724 mmHg 61%
    12:00 +19°C° 0.7 mm 4 mps 724 mmHg 58%
    13:00 +20°C° 0.7 mm 4 mps 724 mmHg 55%
    14:00 +20°C° 0.7 mm 3 mps 723 mmHg 52%
    15:00 +19°C° 0.2 mm 4 mps 723 mmHg 57%
    16:00 +17°C° 0.2 mm 6 mps 723 mmHg 63%
    17:00 +16°C° 0.2 mm 7 mps 723 mmHg 68%
    18:00 +15°C° 0.1 mm 7 mps 724 mmHg 71%
    19:00 +14°C° 0.1 mm 7 mps 724 mmHg 74%
    20:00 +12°C° 0.1 mm 7 mps 724 mmHg 77%
    21:00 +13°C° 0.1 mm 6 mps 724 mmHg 77%
    22:00 +13°C° 0.1 mm 5 mps 724 mmHg 78%
    23:00 +13°C° 0.1 mm 4 mps 724 mmHg 78%
    Show more